This demonstration page uses our WeatherBlox Daily Observations layout. Learn more.

Left ArrowRight Arrow

Hourly Observations for August 7, 2018

Temp ( °F °C ) Dew Point ( °F °C ) Humidity (%) Winds ( mph kmh ) Pressure ( in mb ) Visibility ( mi km ) Precip ( " mm )
12:15 am 00:15 Partly Cloudy with Thunderstorms 71 21.6 67 19.2 86 86 Calm 30.00 1016 10 16 0.00 0.00
12:35 am 00:35 Partly Cloudy with Thunderstorms 70 20.9 69 20.7 99 99 SSE 3 6 30.03 1017 10 16 0.00 0.00
12:55 am 00:55 Mostly Cloudy with Thunderstorms 70 21.1 70 21 99 99 NNW 7 11 30.06 1018 10 16 0.01 0.25
1:15 am 01:15 Cloudy with Strong Thunderstorms 66 19.1 64 18 93 93 NW 10 17 30.06 1018 1 2 0.56 14.22
1:35 am 01:35 Cloudy with Thunderstorms 67 19.6 64 17.8 89 89 SW 6 9 30.06 1018 10 16 0.66 16.76
1:55 am 01:55 Cloudy with Nearby Thunderstorms 66 18.7 65 18.5 99 99 SW 6 9 30.06 1018 10 16 0.67 17.02
2:15 am 02:15 Cloudy 65 18.6 65 18.5 99 99 SSW 7 11 30.03 1017 10 16 0.01 0.25
2:35 am 02:35 Partly Cloudy with Light Rain 66 18.7 66 18.7 100 100 SSW 5 7 30.03 1017 10 16 0.02 0.51
2:55 am 02:55 Partly Cloudy 66 18.8 66 18.8 100 100 Calm 30.03 1017 10 16 0.02 0.51
3:15 am 03:15 Partly Cloudy 66 18.8 66 18.8 100 100 E 6 9 30.00 1016 10 16 0.00 0.00
3:35 am 03:35 Partly Cloudy 65 18.6 65 18.6 100 100 S 5 7 30.03 1017 10 16 0.00 0.00
3:55 am 03:55 Partly Cloudy 66 18.7 66 18.7 100 100 SE 3 6 30.03 1017 10 16 0.00 0.00
4:15 am 04:15 Mostly Cloudy 66 19 66 19 100 100 ESE 5 7 30.03 1017 10 16 0.00 0.00
4:35 am 04:35 Cloudy 67 19.2 67 19.2 100 100 Calm 30.03 1017 10 16 0.00 0.00
4:55 am 04:55 Cloudy 67 19.3 67 19.3 100 100 SE 3 6 30.03 1017 10 16 0.00 0.00
5:15 am 05:15 Mostly Cloudy 67 19.2 67 19.2 100 100 SSE 3 6 30.03 1017 10 16 0.00 0.00
5:35 am 05:35 Cloudy 67 19.5 67 19.5 100 100 SSE 5 7 30.03 1017 10 16 0.00 0.00
5:55 am 05:55 Cloudy 67 19.5 67 19.5 100 100 SSE 5 7 30.03 1017 10 16 0.00 0.00
6:15 am 06:15 Cloudy 67 19.6 67 19.6 100 100 S 6 9 30.03 1017 10 16 0.00 0.00
6:35 am 06:35 Cloudy 67 19.7 67 19.7 100 100 S 12 19 30.03 1017 10 16 0.00 0.00
6:55 am 06:55 Cloudy with Drizzle 68 19.9 67 19.5 98 98 SSE 9 15 30.03 1017 10 16 0.00 0.00
7:15 am 07:15 Mostly Cloudy 67 19.7 67 19.7 100 100 SSW 8 13 30.03 1017 10 16 0.00 0.00
7:35 am 07:35 Mostly Cloudy with Nearby Thunderstorms 68 20 68 20 100 100 SSW 13 20 30.03 1017 10 16 0.00 0.00
7:55 am 07:55 Partly Cloudy with Nearby Thunderstorms 68 20.1 68 20.1 100 100 SW 10 17 30.03 1017 10 16 0.00 0.00
8:15 am 08:15 Mostly Cloudy with Nearby Thunderstorms 68 20 68 20 100 100 S 10 17 30.03 1017 7 11 0.01 0.25
8:35 am 08:35 Cloudy with Rain 68 20.1 68 20.1 100 100 SSW 14 22 30.03 1017 7 11 0.03 0.76
8:55 am 08:55 Cloudy with Light Rain 68 20.2 68 20.1 99 99 SW 14 22 30.03 1017 10 16 0.05 1.27
9:15 am 09:15 Mostly Cloudy 68 20 68 19.8 99 99 SW 13 20 30.03 1017 10 16 0.00 0.00
9:35 am 09:35 Partly Cloudy 68 20 68 19.8 99 99 WSW 6 9 30.03 1017 10 16 0.00 0.00
9:55 am 09:55 Sunny with Light Rain 68 20.1 68 19.8 98 98 SW 7 11 30.03 1017 10 16 0.00 0.00
10:15 am 10:15 Sunny 68 20.2 67 19.7 97 97 SW 6 9 30.03 1017 10 16 0.00 0.00
10:35 am 10:35 Sunny with Drizzle 69 20.5 68 20.1 98 98 SSW 8 13 30.03 1017 10 16 0.00 0.00
10:55 am 10:55 Sunny with Light Rain 69 20.6 68 20 96 96 SW 6 9 30.03 1017 10 16 0.00 0.00
11:15 am 11:15 Sunny 70 21.2 69 20.4 95 95 SW 7 11 29.97 1015 10 16 0.00 0.00
11:35 am 11:35 Sunny 73 22.5 70 21 91 91 WSW 7 11 30.00 1016 10 16 0.00 0.00
11:55 am 11:55 Sunny 73 23 69 20.7 87 87 WSW 7 11 30.00 1016 10 16 0.00 0.00
12:15 pm 12:15 Sunny 75 23.7 70 21 85 85 WSW 7 11 29.97 1015 10 16 0.00 0.00
12:35 pm 12:35 Sunny 76 24.3 70 21.1 82 82 WSW 8 13 29.97 1015 10 16 0.00 0.00
12:55 pm 12:55 Sunny 77 25.2 70 21.3 79 79 WSW 9 15 29.97 1015 10 16 0.00 0.00
1:15 pm 13:15 Sunny 78 25.7 71 21.5 78 78 WSW 9 15 29.97 1015 10 16 0.00 0.00
1:35 pm 13:35 Sunny 79 26.3 71 21.8 76 76 W 14 22 30.00 1016 10 16 0.00 0.00
1:55 pm 13:55 Sunny 81 27 72 22.2 75 75 WSW 14 22 30.00 1016 10 16 0.00 0.00
2:15 pm 14:15 Sunny 80 26.5 72 22.2 77 77 WSW 12 19 30.00 1016 10 16 0.00 0.00
2:35 pm 14:35 Partly Cloudy 81 27 73 22.6 77 77 WSW 14 22 30.00 1016 10 16 0.00 0.00
2:55 pm 14:55 Partly Cloudy 80 26.5 73 22.7 80 80 W 13 20 29.97 1015 10 16 0.00 0.00
3:15 pm 15:15 Partly Cloudy 81 27.2 74 23.4 80 80 WSW 14 22 29.97 1015 10 16 0.00 0.00
3:35 pm 15:35 Mostly Cloudy with Heavy Rain 75 23.7 72 22 90 90 SW 13 20 29.97 1015 4 6 0.04 1.02
3:55 pm 15:55 Cloudy with Mist and Fog 73 22.6 70 21.2 92 92 Calm 29.97 1015 5 8 0.25 6.35
4:15 pm 16:15 Mostly Cloudy 78 25.7 74 23.5 88 88 WSW 5 7 29.94 1014 10 16 0.00 0.00
4:35 pm 16:35 Partly Cloudy 81 27.2 76 24.5 85 85 W 9 15 29.94 1014 10 16 0.00 0.00
4:55 pm 16:55 Partly Cloudy 79 26.3 75 23.7 86 86 WNW 8 13 29.94 1014 10 16 0.00 0.00
5:15 pm 17:15 Sunny 80 26.7 71 21.5 73 73 W 12 19 29.91 1013 10 16 0.00 0.00
5:35 pm 17:35 Sunny 80 26.7 72 22 75 75 W 7 11 29.91 1013 10 16 0.00 0.00
5:55 pm 17:55 Sunny 79 26 71 21.7 77 77 WSW 7 11 29.91 1013 10 16 0.00 0.00
6:15 pm 18:15 Partly Cloudy 79 26.2 73 22.9 82 82 WSW 5 7 29.91 1013 10 16 0.00 0.00
6:35 pm 18:35 Partly Cloudy 79 25.9 73 22.9 84 84 WSW 5 7 29.91 1013 10 16 0.00 0.00
6:55 pm 18:55 Sunny 78 25.7 73 22.9 85 85 WSW 10 17 29.94 1014 10 16 0.00 0.00
7:15 pm 19:15 Sunny 77 25.2 73 22.9 87 87 SW 7 11 29.94 1014 10 16 0.00 0.00
7:35 pm 19:35 Sunny 77 25.2 73 22.5 85 85 WSW 7 11 29.94 1014 10 16 0.00 0.00
7:55 pm 19:55 Sunny 76 24.6 72 22.3 87 87 WSW 6 9 29.94 1014 10 16 0.00 0.00
8:15 pm 20:15 Partly Cloudy 76 24.6 73 22.6 89 89 WSW 5 7 29.94 1014 10 16 0.00 0.00
8:35 pm 20:35 Sunny 75 24.1 73 22.5 91 91 WSW 3 6 29.94 1014 10 16 0.00 0.00
8:55 pm 20:55 Clear 75 23.7 72 22.3 92 92 W 5 7 29.94 1014 10 16 0.00 0.00
9:15 pm 21:15 Mostly Cloudy with Rain 74 23.5 72 22.2 92 92 WSW 3 6 29.94 1014 10 16 0.01 0.25
9:35 pm 21:35 Mostly Cloudy 73 22.7 72 22.3 98 98 W 7 11 29.94 1014 10 16 0.01 0.25
9:55 pm 21:55 Mostly Cloudy 73 22.5 72 22.2 98 98 SW 3 6 29.94 1014 10 16 0.01 0.25
10:15 pm 22:15 Cloudy 72 22.1 72 22 99 99 Calm 29.97 1015 10 16 0.00 0.00
10:35 pm 22:35 Mostly Cloudy 71 21.6 71 21.5 99 99 SW 5 7 29.94 1014 10 16 0.00 0.00
10:55 pm 22:55 Clear 72 22 71 21.5 97 97 WSW 5 7 29.97 1015 10 16 0.00 0.00
11:15 pm 23:15 Clear 71 21.5 71 21.5 100 100 SW 3 6 29.97 1015 10 16 0.00 0.00
11:35 pm 23:35 Mostly Cloudy 71 21.5 71 21.5 100 100 SSW 3 6 29.97 1015 10 16 0.00 0.00
11:55 pm 23:55 Mostly Cloudy 71 21.5 71 21.5 100 100 SSW 5 7 29.94 1014 10 16 0.00 0.00

Powered by AerisWeather